UAE6K VRMM-OMDB

Flight info

Callsign UAE6K
Flight time N/A
Altitude 38000
Route ELBET1A ELBET L894 KITAL P570 ITURA M762 VAXAS/N0406F240 M762 MIVEK P574 IMPED
Aircraft B77W/H-SDE1E2E3FGHIJ2J3J4J5M1RWXY/LB1D1

Departure

Time 2026-05-05 16:10
Airport Velana International Airport (VRMM)

Arrival

Time N/A
Airport Dubai International Airport (OMDB)
Time Latitude Longitude Altitude Speed Heading
2026-05-05 15:46 4.17966 73.52778 17 ft 0 kts 269°
2026-05-05 15:56 4.17965 73.52778 17 ft 0 kts 269°
2026-05-05 16:00 4.17966 73.52782 17 ft 2 kts 270°
2026-05-05 16:01 4.17966 73.52797 17 ft 2 kts 269°
2026-05-05 16:01 4.17966 73.52812 17 ft 2 kts 269°
2026-05-05 16:01 4.17965 73.52826 17 ft 2 kts 283°
2026-05-05 16:01 4.17960 73.52840 17 ft 2 kts 300°
2026-05-05 16:02 4.17952 73.52851 17 ft 2 kts 315°
2026-05-05 16:02 4.17940 73.52860 17 ft 2 kts 331°
2026-05-05 16:02 4.17927 73.52866 17 ft 2 kts 346°
2026-05-05 16:02 4.17916 73.52868 17 ft 0 kts 359°
2026-05-05 16:03 4.17910 73.52868 17 ft 0 kts 359°
2026-05-05 16:06 4.17919 73.52867 17 ft 2 kts 359°
2026-05-05 16:07 4.17941 73.52867 17 ft 4 kts 359°
2026-05-05 16:07 4.17983 73.52866 17 ft 6 kts 358°
2026-05-05 16:07 4.18028 73.52865 17 ft 8 kts 359°
2026-05-05 16:07 4.18085 73.52867 17 ft 5 kts 17°
2026-05-05 16:08 4.18108 73.52888 17 ft 5 kts 62°
2026-05-05 16:08 4.18140 73.52924 17 ft 8 kts 22°
2026-05-05 16:08 4.18186 73.52972 17 ft 11 kts 73°
2026-05-05 16:08 4.18190 73.53031 17 ft 4 kts 89°
2026-05-05 16:09 4.18190 73.53040 17 ft 0 kts 88°
2026-05-05 16:09 4.18190 73.53042 17 ft 2 kts 88°
2026-05-05 16:09 4.18199 73.53087 17 ft 10 kts 51°
2026-05-05 16:09 4.18332 73.53103 17 ft 41 kts
2026-05-05 16:10 4.18902 73.53103 18 ft 120 kts 359°
2026-05-05 16:10 4.19954 73.53104 185 ft 170 kts 358°
2026-05-05 16:10 4.21139 73.53103 980 ft 178 kts 358°
2026-05-05 16:10 4.22417 73.53110 1646 ft 191 kts 358°
2026-05-05 16:11 4.23782 73.53114 2235 ft 205 kts 356°
2026-05-05 16:11 4.28522 73.53098 4136 ft 252 kts 358°
2026-05-05 16:12 4.30310 73.53095 4858 ft 264 kts 358°
2026-05-05 16:12 4.34063 73.53089 6611 ft 275 kts 358°
2026-05-05 16:13 4.39914 73.53085 9154 ft 289 kts 358°
2026-05-05 16:13 4.41909 73.52775 9935 ft 292 kts 338°
2026-05-05 16:13 4.43727 73.51821 10589 ft 303 kts 324°
2026-05-05 16:14 4.47087 73.48919 11584 ft 337 kts 317°
2026-05-05 16:14 4.50797 73.45631 12700 ft 370 kts 317°
2026-05-05 16:15 4.54840 73.42116 13955 ft 398 kts 317°
2026-05-05 16:15 4.59087 73.38430 15684 ft 410 kts 318°
2026-05-05 16:16 4.63419 73.34669 17376 ft 420 kts 317°
2026-05-05 16:16 4.67892 73.30787 18990 ft 430 kts 317°
2026-05-05 16:17 4.72465 73.26815 20530 ft 439 kts 317°
2026-05-05 16:17 4.74762 73.24821 21262 ft 443 kts 317°
2026-05-05 16:18 4.79475 73.20725 22714 ft 451 kts 317°
2026-05-05 16:18 4.81833 73.18677 23345 ft 457 kts 318°
2026-05-05 16:18 4.86712 73.14436 24589 ft 468 kts 318°
2026-05-05 16:19 4.89178 73.12293 25206 ft 474 kts 319°
2026-05-05 16:19 4.91697 73.10103 25851 ft 478 kts 319°
2026-05-05 16:19 4.96766 73.05697 27149 ft 487 kts 319°
2026-05-05 16:20 5.01913 73.01222 28356 ft 496 kts 320°
2026-05-05 16:20 5.07156 72.96662 29639 ft 503 kts 320°
2026-05-05 16:21 5.12406 72.92095 31445 ft 496 kts 320°
2026-05-05 16:22 5.20154 72.85352 33878 ft 491 kts 320°
2026-05-05 16:22 5.25299 72.80873 35524 ft 485 kts 320°
2026-05-05 16:23 5.30415 72.76420 36629 ft 485 kts 320°
2026-05-05 16:23 5.33020 72.74151 36880 ft 484 kts 320°
2026-05-05 16:23 5.38146 72.69687 36892 ft 483 kts 320°
2026-05-05 16:24 5.43234 72.65254 36893 ft 482 kts 320°
2026-05-05 16:25 5.50861 72.58608 36893 ft 482 kts 320°
2026-05-05 16:25 5.58450 72.51993 36893 ft 482 kts 320°
2026-05-05 16:26 5.68581 72.43158 36892 ft 481 kts 320°
2026-05-05 16:27 5.73640 72.38744 36893 ft 481 kts 320°
2026-05-05 16:27 5.78713 72.34318 36891 ft 481 kts 320°
2026-05-05 16:28 5.83760 72.29913 36889 ft 480 kts 320°
2026-05-05 16:28 5.88804 72.25510 36890 ft 481 kts 320°
2026-05-05 16:29 5.93873 72.21083 36890 ft 482 kts 320°
2026-05-05 16:29 5.98977 72.16625 36890 ft 481 kts 320°
2026-05-05 16:30 6.04003 72.12234 36890 ft 481 kts 320°
2026-05-05 16:30 6.09047 72.07826 36890 ft 481 kts 320°
2026-05-05 16:31 6.14113 72.03398 36890 ft 480 kts 320°
2026-05-05 16:31 6.19151 71.98994 36890 ft 481 kts 320°
2026-05-05 16:32 6.24223 71.94558 36889 ft 481 kts 320°
2026-05-05 16:32 6.29272 71.90140 36893 ft 482 kts 320°
2026-05-05 16:33 6.34348 71.85699 36896 ft 482 kts 320°
2026-05-05 16:33 6.39469 71.81329 36910 ft 482 kts 323°
2026-05-05 16:34 6.44820 71.77182 36907 ft 482 kts 323°
2026-05-05 16:34 6.50129 71.73057 36898 ft 482 kts 323°
2026-05-05 16:35 6.55414 71.68935 36900 ft 482 kts 323°
2026-05-05 16:35 6.60740 71.64771 36901 ft 483 kts 322°
2026-05-05 16:36 6.66052 71.60613 36896 ft 483 kts 323°
2026-05-05 16:36 6.71356 71.56457 36893 ft 483 kts 323°
2026-05-05 16:37 6.76654 71.52304 36900 ft 482 kts 323°
2026-05-05 16:37 6.81972 71.48134 36899 ft 482 kts 322°
2026-05-05 16:38 6.87285 71.43966 36897 ft 482 kts 323°
2026-05-05 16:38 6.92573 71.39816 36893 ft 483 kts 322°
2026-05-05 16:39 6.97891 71.35641 36889 ft 483 kts 322°
2026-05-05 16:39 7.03173 71.31493 36892 ft 482 kts 322°
2026-05-05 16:40 7.08486 71.27320 36889 ft 482 kts 322°
2026-05-05 16:40 7.13815 71.23132 36889 ft 482 kts 322°
2026-05-05 16:41 7.19097 71.18981 36889 ft 482 kts 323°
2026-05-05 16:41 7.24376 71.14830 36891 ft 482 kts 322°
2026-05-05 16:42 7.29678 71.10661 36888 ft 481 kts 322°
2026-05-05 16:42 7.34985 71.06486 36891 ft 483 kts 323°
2026-05-05 16:43 7.40290 71.02312 36889 ft 484 kts 322°
2026-05-05 16:43 7.45574 70.98152 36890 ft 483 kts 322°
2026-05-05 16:44 7.50895 70.93961 36891 ft 484 kts 322°
2026-05-05 16:44 7.56174 70.89798 36891 ft 483 kts 322°
2026-05-05 16:45 7.61490 70.85605 36890 ft 483 kts 322°
2026-05-05 16:45 7.66810 70.81406 36891 ft 483 kts 322°
2026-05-05 16:46 7.72124 70.77210 36891 ft 483 kts 322°
2026-05-05 16:46 7.77452 70.73003 36891 ft 485 kts 322°
2026-05-05 16:47 7.82770 70.68803 36892 ft 485 kts 322°
2026-05-05 16:47 7.88104 70.64588 36892 ft 484 kts 322°
2026-05-05 16:48 7.93411 70.60393 36896 ft 484 kts 322°
2026-05-05 16:48 7.98719 70.56195 36907 ft 483 kts 322°
2026-05-05 16:49 8.04009 70.52011 36912 ft 484 kts 322°
2026-05-05 16:49 8.09306 70.47819 36910 ft 484 kts 322°
2026-05-05 16:50 8.14640 70.43598 36912 ft 485 kts 322°
2026-05-05 16:50 8.19932 70.39407 36912 ft 484 kts 322°
2026-05-05 16:51 8.25237 70.35205 36913 ft 485 kts 322°
2026-05-05 16:51 8.30540 70.31004 36911 ft 485 kts 322°
2026-05-05 16:52 8.35839 70.26804 36910 ft 485 kts 322°
2026-05-05 16:52 8.41177 70.22571 36911 ft 484 kts 322°
2026-05-05 16:53 8.46493 70.18353 36911 ft 485 kts 322°
2026-05-05 16:53 8.51804 70.14140 36910 ft 485 kts 322°
2026-05-05 16:54 8.57109 70.09929 36911 ft 485 kts 322°
2026-05-05 16:54 8.62413 70.05717 36911 ft 485 kts 322°
2026-05-05 16:55 8.67745 70.01481 36911 ft 484 kts 322°
2026-05-05 16:55 8.73027 69.97283 36912 ft 484 kts 322°
2026-05-05 16:56 8.78336 69.93063 36912 ft 485 kts 322°
2026-05-05 16:56 8.83667 69.88824 36911 ft 485 kts 322°
2026-05-05 16:57 8.88969 69.84605 36911 ft 485 kts 322°
2026-05-05 16:57 8.94279 69.80379 36911 ft 484 kts 322°
2026-05-05 16:58 8.99559 69.76176 36913 ft 485 kts 322°
2026-05-05 16:58 9.04881 69.71938 36912 ft 485 kts 322°
2026-05-05 16:59 9.10207 69.67693 36913 ft 485 kts 322°
2026-05-05 16:59 9.15529 69.63451 36911 ft 485 kts 322°
2026-05-05 17:00 9.20842 69.59215 36912 ft 485 kts 322°
2026-05-05 17:00 9.26138 69.54990 36913 ft 486 kts 322°
2026-05-05 17:01 9.31461 69.50742 36912 ft 485 kts 322°
2026-05-05 17:01 9.36732 69.46534 36911 ft 484 kts 322°
2026-05-05 17:02 9.42050 69.42287 36911 ft 485 kts 322°
2026-05-05 17:02 9.47337 69.38062 36912 ft 484 kts 322°
2026-05-05 17:03 9.52618 69.33841 36910 ft 485 kts 322°
2026-05-05 17:03 9.57936 69.29589 36907 ft 485 kts 322°
2026-05-05 17:04 9.63257 69.25333 36912 ft 485 kts 322°
2026-05-05 17:04 9.68552 69.21094 36917 ft 485 kts 322°
2026-05-05 17:05 9.73817 69.16879 36925 ft 484 kts 322°
2026-05-05 17:05 9.79128 69.12622 36924 ft 484 kts 322°
2026-05-05 17:06 9.84408 69.08386 36929 ft 483 kts 322°
2026-05-05 17:06 9.89673 69.04162 36930 ft 483 kts 322°
2026-05-05 17:07 9.94977 68.99904 36930 ft 484 kts 322°
2026-05-05 17:07 10.00273 68.95651 36932 ft 485 kts 322°
2026-05-05 17:08 10.05576 68.91390 36928 ft 483 kts 322°
2026-05-05 17:08 10.10867 68.87138 36917 ft 484 kts 322°
2026-05-05 17:09 10.16160 68.82881 36915 ft 484 kts 322°
2026-05-05 17:09 10.21437 68.78635 36916 ft 483 kts 321°
2026-05-05 17:10 10.26724 68.74380 36917 ft 484 kts 321°
2026-05-05 17:10 10.32021 68.70116 36914 ft 485 kts 321°
2026-05-05 17:11 10.37303 68.65861 36914 ft 484 kts 321°
2026-05-05 17:11 10.42590 68.61601 36913 ft 485 kts 321°
2026-05-05 17:12 10.47874 68.57340 36911 ft 484 kts 321°
2026-05-05 17:12 10.53161 68.53075 36912 ft 485 kts 321°
2026-05-05 17:13 10.58451 68.48806 36912 ft 484 kts 322°
2026-05-05 17:13 10.63755 68.44524 36913 ft 484 kts 322°
2026-05-05 17:14 10.69054 68.40244 36912 ft 485 kts 322°
2026-05-05 17:14 10.74341 68.35973 36912 ft 485 kts 322°
2026-05-05 17:15 10.79653 68.31678 36912 ft 485 kts 321°
2026-05-05 17:15 10.84941 68.27401 36912 ft 486 kts 321°
2026-05-05 17:16 10.90239 68.23113 36911 ft 485 kts 322°
2026-05-05 17:16 10.95496 68.18858 36912 ft 484 kts 322°
2026-05-05 17:17 11.00786 68.14573 36911 ft 483 kts 322°
2026-05-05 17:17 11.06075 68.10287 36911 ft 485 kts 322°
2026-05-05 17:18 11.11388 68.05980 36911 ft 485 kts 322°
2026-05-05 17:18 11.16663 68.01701 36912 ft 485 kts 322°
2026-05-05 17:19 11.21983 67.97384 36911 ft 484 kts 322°
2026-05-05 17:19 11.27248 67.93108 36912 ft 484 kts 322°
2026-05-05 17:20 11.32510 67.88834 36911 ft 483 kts 322°
2026-05-05 17:20 11.37785 67.84547 36912 ft 484 kts 322°
2026-05-05 17:21 11.43073 67.80248 37147 ft 491 kts 322°
2026-05-05 17:21 11.45753 67.78069 37776 ft 489 kts 322°
2026-05-05 17:22 11.51072 67.73740 37909 ft 485 kts 322°
2026-05-05 17:22 11.56341 67.69450 37910 ft 482 kts 322°
2026-05-05 17:23 11.61583 67.65181 37911 ft 482 kts 322°
2026-05-05 17:23 11.66880 67.60864 37919 ft 481 kts 322°
2026-05-05 17:24 11.72153 67.56566 37926 ft 482 kts 322°
2026-05-05 17:24 11.77394 67.52290 37929 ft 480 kts 322°
2026-05-05 17:25 11.82587 67.48052 37931 ft 480 kts 322°
2026-05-05 17:25 11.87806 67.43791 37931 ft 479 kts 322°
2026-05-05 17:26 11.92996 67.39551 37931 ft 479 kts 323°
2026-05-05 17:26 11.98212 67.35287 37931 ft 478 kts 323°
2026-05-05 17:27 12.03412 67.31037 37928 ft 478 kts 322°
2026-05-05 17:27 12.08612 67.26784 37928 ft 478 kts 322°
2026-05-05 17:28 12.13786 67.22550 37930 ft 478 kts 322°
2026-05-05 17:28 12.19031 67.18259 37929 ft 478 kts 322°
2026-05-05 17:29 12.24206 67.14018 37930 ft 478 kts 322°
2026-05-05 17:29 12.29405 67.09756 37929 ft 478 kts 322°
2026-05-05 17:30 12.34592 67.05502 37930 ft 477 kts 322°
2026-05-05 17:30 12.39771 67.01253 37930 ft 476 kts 322°
2026-05-05 17:31 12.44943 66.97007 37930 ft 476 kts 322°
2026-05-05 17:31 12.50124 66.92752 37930 ft 478 kts 322°
2026-05-05 17:32 12.55283 66.88512 37929 ft 478 kts 322°
2026-05-05 17:32 12.60501 66.84222 37922 ft 478 kts 322°
2026-05-05 17:33 12.65676 66.79965 37916 ft 478 kts 322°
2026-05-05 17:33 12.70895 66.75669 37911 ft 477 kts 322°
2026-05-05 17:34 12.76054 66.71420 37909 ft 476 kts 322°
2026-05-05 17:34 12.81257 66.67134 37909 ft 476 kts 322°
2026-05-05 17:35 12.86393 66.62899 37909 ft 476 kts 322°
2026-05-05 17:35 12.91591 66.58612 37910 ft 477 kts 322°
2026-05-05 17:36 12.96752 66.54353 37910 ft 478 kts 322°
2026-05-05 17:36 13.01921 66.50084 37910 ft 477 kts 322°
2026-05-05 17:37 13.07113 66.45795 37910 ft 477 kts 322°
2026-05-05 17:37 13.12287 66.41517 37912 ft 477 kts 322°
2026-05-05 17:38 13.17457 66.37240 37912 ft 477 kts 322°
2026-05-05 17:38 13.22657 66.32937 37908 ft 478 kts 322°
2026-05-05 17:39 13.27859 66.28629 37908 ft 478 kts 322°
2026-05-05 17:39 13.33024 66.24350 37909 ft 478 kts 322°
2026-05-05 17:40 13.38223 66.20039 37908 ft 478 kts 322°
2026-05-05 17:40 13.43399 66.15745 37909 ft 477 kts 322°
2026-05-05 17:41 13.48552 66.11469 37909 ft 477 kts 322°
2026-05-05 17:41 13.53733 66.07166 37908 ft 477 kts 322°
2026-05-05 17:42 13.58920 66.02856 37910 ft 477 kts 322°
2026-05-05 17:42 13.64070 65.98575 37921 ft 478 kts 322°
2026-05-05 17:43 13.69244 65.94270 37926 ft 478 kts 322°
2026-05-05 17:43 13.74437 65.89948 37932 ft 477 kts 322°
2026-05-05 17:44 13.79583 65.85662 37931 ft 477 kts 322°
2026-05-05 17:44 13.84741 65.81364 37934 ft 477 kts 322°
2026-05-05 17:45 13.89928 65.77039 37931 ft 477 kts 322°
2026-05-05 17:45 13.95094 65.72728 37934 ft 478 kts 322°